Change the Weather History Date:

Saturday, May 4, 2013

  Actual Average Record
Temperature  
Mean Temperature 49 °F 49 °F  
Max Temperature 64 °F 64 °F 89 °F (1918)
Min Temperature 33 °F 35 °F 21 °F (2002)
Degree Days  
Heating Degree Days 16 16  
Month to date heating degree days 84 66  
Since 1 July heating degree days 7406 7800  
Cooling Degree Days 0 0  
Month to date cooling degree days 0 0  
Year to date cooling degree days 0 0  
Moisture  
Dew Point 29 °F    
Average Humidity 50    
Maximum Humidity 77    
Minimum Humidity 22    
Precipitation  
Precipitation 0.00 in 0.05 in 0.78 in (1964)
Month to date precipitation 0.00 0.21  
Year to date precipitation 2.84 2.29  
Snow  
Snow 0.00 in - - ()
Month to date snowfall 0.0  
Since 1 July snowfall 0.0  
Snow Depth 0.00 in    
Sea Level Pressure  
Sea Level Pressure 30.24 in    
Wind  
Wind Speed 7 mph (NE)    
Max Wind Speed 17 mph    
Max Gust Speed 22 mph    
T = Trace of Precipitation, MM = Missing Value Source: NWS Daily Summary

Daily Weather History Graph

Daily Weather History Graph

Search for Another Location

Airport or City:

Trip Planner

Search our weather history database for the weather conditions in past years. The results will help you decide how hot, cold, wet, or windy it might be!

Date:

Astronomy

May. 04, 2013 Rise Set
Actual Time 5:46 AM MDT 8:23 PM MDT
Civil Twilight 5:11 AM MDT 8:58 PM MDT
Nautical Twilight 4:27 AM MDT 9:42 PM MDT
Astronomical Twilight 3:37 AM MDT 10:33 PM MDT
Moon 3:07 AM MDT (5/4) 3:04 PM MDT (5/4)
Length of Visible Light 15h 46m
Length of Day
14h 37m
Waning Crescent, 26% of the Moon is Illuminated
May 4
Waning Crescent
May 9
New
May 17
First Quarter
May 24
Full
May 31
Last Quarter

Hourly Weather History & Observations

Time (MDT) Temp. Windchill Dew Point Humidity Pressure Visibility Wind Dir Wind Speed Gust Speed Precip Events Conditions
12:48 AM 50.0 °F - 41.0 °F 71% 30.16 in - NW 17.3 mph - N/A   Unknown
1:48 AM 50.0 °F - 41.0 °F 71% 30.17 in - NNW 10.4 mph - N/A   Unknown
2:48 AM 48.9 °F - 41.0 °F 74% 30.18 in - NNW 8.1 mph - N/A   Unknown
3:48 AM 50.0 °F - 39.9 °F 68% 30.19 in - North 6.9 mph - N/A   Unknown
4:48 AM 48.0 °F - 37.0 °F 66% 30.20 in - North 6.9 mph - N/A   Unknown
5:48 AM 46.9 °F - 35.1 °F 63% 30.22 in - NNE 11.5 mph - N/A   Unknown
6:48 AM 46.9 °F - 30.9 °F 54% 30.24 in - NE 8.1 mph - N/A   Unknown
7:48 AM 50.0 °F - 28.9 °F 44% 30.27 in - East 8.1 mph - N/A   Unknown
8:48 AM 53.1 °F - 27.0 °F 37% 30.27 in - ENE 10.4 mph - N/A   Unknown
9:48 AM 55.9 °F - 28.0 °F 34% 30.28 in - ENE 12.7 mph - N/A   Unknown
10:48 AM 60.1 °F - 25.0 °F 26% 30.28 in - East 13.8 mph - N/A   Unknown
11:48 AM 62.1 °F - 24.1 °F 23% 30.28 in - ESE 13.8 mph 20.7 mph N/A   Unknown
12:48 PM 61.0 °F - 24.1 °F 24% 30.27 in - North 10.4 mph 17.3 mph N/A   Unknown
1:48 PM 64.0 °F - 24.1 °F 22% 30.25 in - NE 5.8 mph 18.4 mph N/A   Unknown
2:48 PM 63.0 °F - 25.0 °F 24% 30.25 in - Variable 4.6 mph - N/A   Unknown
3:48 PM 63.0 °F - 25.0 °F 24% 30.23 in - NE 8.1 mph - N/A   Unknown
4:48 PM 62.1 °F - 25.0 °F 24% 30.24 in - NE 9.2 mph - N/A   Unknown
5:48 PM 62.1 °F - 25.0 °F 24% 30.24 in - ENE 6.9 mph - N/A   Unknown
6:48 PM 61.0 °F - 23.0 °F 23% 30.25 in - East 5.8 mph - N/A   Unknown
7:48 PM 57.9 °F - 26.1 °F 30% 30.25 in - ENE 4.6 mph - N/A   Unknown
8:48 PM 48.9 °F - 27.0 °F 43% 30.26 in - NE 4.6 mph - N/A   Unknown
9:48 PM 46.0 °F 44.8 °F 26.1 °F 46% 30.28 in - East 3.5 mph - N/A   Unknown
10:48 PM 37.0 °F - 25.0 °F 62% 30.29 in - Calm Calm - N/A   Unknown
11:48 PM 39.9 °F 37.8 °F 25.0 °F 55% 30.29 in - East 3.5 mph - N/A   Unknown